Alexandria, MN

7:41 AM CST on December 06, 2019 (GMT -0600)
Chandler

Weather History for KAXN - October, 2019

Change the Weather History Date:

Saturday, October 26, 2019

  Actual Average Record
Temperature  
Mean Temperature 49 °F -  
Max Temperature 60 °F 54 °F 81 °F (1955)
Min Temperature 39 °F 35 °F 18 °F (1976)
Degree Days  
Heating Degree Days 16    
Moisture  
Dew Point 32 °F    
Average Humidity 58    
Maximum Humidity 79    
Minimum Humidity 36    
Precipitation  
Precipitation 0.00 in - - ()
Sea Level Pressure  
Sea Level Pressure 29.75 in    
Wind  
Wind Speed 13 mph ()    
Max Wind Speed 21 mph    
Max Gust Speed 29 mph    
Visibility 10.0 miles    
Events      
Averages and records for this station are not official NWS values.
T = Trace of Precipitation, MM = Missing Value Source: Averaged Metar Reports

Daily Weather History Graph

Daily Weather History Graph

Search for Another Location

Airport or City:

Astronomy

Oct. 26, 2019 Rise Set
Actual Time 7:53 AM CDT 6:17 PM CDT
Civil Twilight 7:22 AM CDT 6:47 PM CDT
Nautical Twilight 6:47 AM CDT 7:22 PM CDT
Astronomical Twilight 6:12 AM CDT 7:57 PM CDT
Moon 5:39 AM CDT (10/26) 6:01 PM CDT (10/26)
Length of Visible Light 11h 25m
Length of Day
10h 24m
Waning Crescent, 3% of the Moon is Illuminated
Oct 26
Waning Crescent
Oct 27
New
Nov 4
First Quarter
Nov 12
Full
Nov 19
Last Quarter

Hourly Weather History & Observations

Time (CDT) Temp. Windchill Dew Point Humidity Pressure Visibility Wind Dir Wind Speed Gust Speed Precip Events Conditions
12:53 AM 43.0 °F 35.7 °F 30.9 °F 62% 29.90 in 10.0 mi South 15.0 mph - N/A   Clear
1:53 AM 42.1 °F 34.5 °F 30.9 °F 65% 29.88 in 10.0 mi South 15.0 mph - N/A   Clear
2:53 AM 41.0 °F 33.1 °F 30.9 °F 67% 29.86 in 10.0 mi South 15.0 mph - N/A   Clear
3:53 AM 41.0 °F 33.9 °F 30.0 °F 65% 29.83 in 10.0 mi South 12.7 mph - N/A   Clear
4:53 AM 39.9 °F 32.5 °F 28.9 °F 65% 29.81 in 10.0 mi South 12.7 mph - N/A   Clear
5:53 AM 39.9 °F 32.1 °F 28.9 °F 65% 29.79 in 10.0 mi South 13.8 mph - N/A   Clear
6:53 AM 39.9 °F 32.1 °F 28.0 °F 63% 29.77 in 10.0 mi South 13.8 mph - N/A   Clear
7:53 AM 39.9 °F 30.5 °F 28.0 °F 63% 29.74 in 10.0 mi South 19.6 mph - N/A   Clear
8:53 AM 41.0 °F 32.8 °F 28.0 °F 60% 29.74 in 10.0 mi South 16.1 mph 27.6 mph N/A   Clear
9:53 AM 44.1 °F 35.7 °F 28.9 °F 55% 29.73 in 10.0 mi South 20.7 mph 27.6 mph N/A   Clear
10:53 AM 48.0 °F - 28.9 °F 48% 29.72 in 10.0 mi South 18.4 mph 28.8 mph N/A   Clear
11:53 AM 51.1 °F - 30.9 °F 46% 29.70 in 10.0 mi SSE 19.6 mph 27.6 mph N/A   Clear
12:53 PM 54.0 °F - 32.0 °F 43% 29.69 in 10.0 mi South 19.6 mph - N/A   Clear
1:53 PM 57.0 °F - 33.1 °F 40% 29.68 in 10.0 mi SSW 13.8 mph 24.2 mph N/A   Clear
2:53 PM 57.0 °F - 33.1 °F 40% 29.67 in 10.0 mi South 12.7 mph 21.9 mph N/A   Clear
3:53 PM 59.0 °F - 32.0 °F 36% 29.67 in 10.0 mi South 13.8 mph - N/A   Clear
4:53 PM 57.0 °F - 32.0 °F 39% 29.67 in 10.0 mi South 13.8 mph - N/A   Clear
5:53 PM 53.1 °F - 32.0 °F 45% 29.68 in 10.0 mi SSE 10.4 mph - N/A   Clear
6:53 PM 48.0 °F - 32.0 °F 54% 29.70 in 10.0 mi SSE 5.8 mph - N/A   Clear
7:53 PM 46.0 °F 43.9 °F 32.0 °F 58% 29.72 in 10.0 mi WSW 4.6 mph - N/A   Clear
8:53 PM 45.0 °F 40.6 °F 32.0 °F 60% 29.72 in 10.0 mi NW 8.1 mph - N/A   Clear
9:53 PM 44.1 °F 39.0 °F 37.9 °F 79% 29.75 in 10.0 mi NNW 9.2 mph 21.9 mph N/A   Clear
10:10 PM 44.1 °F 37.1 °F 37.9 °F 79% 29.72 in 10.0 mi NNW 15.0 mph 20.7 mph N/A   Mostly Cloudy
10:49 PM 42.8 °F 36.2 °F 33.8 °F 70% 29.73 in 10.0 mi NNW 12.7 mph 21.9 mph N/A   Scattered Clouds
10:53 PM 42.1 °F 34.9 °F 34.0 °F 73% 29.76 in 10.0 mi NNW 13.8 mph 20.7 mph N/A   Partly Cloudy
11:53 PM 41.0 °F 34.3 °F 34.0 °F 76% 29.77 in 10.0 mi NNW 11.5 mph - N/A   Mostly Cloudy